Torna al catalogo

SL-12 R/B(2)

AttivoGEO
NORAD 16676·ROCKET BODY·🇷🇺 Russia

Lanciato Apr 4, 1986 da Baikonur Cosmodrome

Loading…

TLE

AggiornatoSource: Space-Track

Epoca: Aug 28, 2026, 18:21 UTC

1 16676U 86027F   26240.76475712 -.00000037  00000-0  00000+0 0  9992
2 16676  11.6151 322.1554 0035064 149.2027 200.8315  0.97689357120723

Traccia SL-12 R/B(2) in tempo reale con AllMySat

Download on the App Store